[[{"header":{"parameterUnit":"m.s-1","parameterCategory":2,"la1":30.2991,"la2":30.254,"lo1":-89.0895,"lo2":-89.0444,"dy":0.0017,"dx":0.0017,"nx":28,"ny":28,"refTime":"2024-07-23T03:00:00:Z","depth":"0","parameterNumber":2,"parameterNumberName":"U-component_of_CURRENTS"},"data":[0,0,0,0,0,0,0,0,0,0,0,0,0,0,0,0,0,0,0,0,0,0,0,0,0,0,0,0,0,0,0,0,0,0,0,0,0,0,0,0,0,0,0,0,0,0,0,0,0,0,0,0,0,0,0,0,0,0,0.3291,0.3293,0,0.3358,0.3358,0.3358,0.333,0.3329,0.3329,0.3328,0.3273,0.3272,0.3272,0,0,0,0,0,0,0,0,0,0,0,0,0,0.3111,0.3114,0.3291,0.3293,0.3294,0.3358,0.3358,0.3358,0.333,0.3329,0.3328,0.3327,0.3273,0.3272,0.3272,0,0,0,0,0,0,0,0,0,0,0,0,0,0.3177,0.3115,0.3291,0.3294,0.3295,0.3358,0.3358,0.3358,0.3331,0.3329,0.3328,0.3327,0.3273,0.3272,0.3272,0.3291,0,0,0.3269,0.3268,0,0,0,0,0,0,0,0,0.3173,0.3183,0.3292,0.3294,0.3296,0.3341,0.3275,0.3333,0.3331,0.3309,0.3328,0.3326,0.3291,0.3288,0.3294,0.3289,0.3286,0.3268,0.3268,0.3267,0.3267,0,0,0,0,0,0,0,0.3169,0.318,0.3309,0.3294,0.3296,0.3283,0.329,0.3285,0.3298,0.3311,0.3311,0.3331,0.329,0.3295,0.3292,0.3286,0.3268,0.3268,0.3267,0.3267,0.3328,0.3331,0,0,0,0,0,0,0.318,0.3176,0.3307,0.3312,0.3239,0.3288,0.3296,0.3322,0.3301,0.3299,0.3333,0.333,0.3297,0.3294,0.329,0.3344,0.3267,0.3267,0.3266,0.3326,0.3329,0.3331,0,0,0,0,0,0,0.3176,0.3192,0.3305,0.3251,0.3265,0.3293,0.3322,0.3324,0.3332,0.332,0.3314,0.334,0.3296,0.3292,0.3294,0.334,0.3266,0.3265,0.3324,0.3327,0.333,0.3431,0,0,0,0,0,0,0.3171,0.319,0.3217,0.3252,0.3269,0.3358,0.3324,0.3326,0.335,0.3347,0.3325,0.3318,0.3295,0.3296,0.3293,0.3337,0.3264,0.3321,0.3325,0.3329,0.3425,0.3437,0.3448,0,0,0,0,0,0.3164,0.3224,0.3218,0.3235,0.3305,0.3361,0.3368,0.3376,0.3352,0.3373,0.3349,0.3319,0.3321,0.3297,0.3293,0.3338,0.3319,0.3324,0.3329,0.3419,0.3435,0.3447,0,0,0,0,0,0,0.3165,0.3228,0.3222,0.3298,0.3329,0.3359,0.3397,0.3384,0.3384,0.3379,0.3338,0.3332,0.3357,0.3334,0.3308,0.337,0.3319,0.3324,0.339,0.3404,0.3415,0.3408,0.3264,0,0,0,0,0,0.3178,0.3235,0.3275,0.3334,0.3357,0.3369,0.3394,0.3397,0.3405,0.3403,0.3384,0.3372,0.3378,0.3377,0.3377,0.3403,0.3394,0.3433,0.3445,0.3455,0.3449,0.3478,0.3492,0.3348,0.3348,0.3348,0,0,0.3194,0.3239,0.327,0.3338,0.3363,0.3407,0.338,0.3432,0.3456,0.3398,0.3421,0.3411,0.3394,0.3429,0.3439,0.3412,0.3499,0.3461,0.347,0.3458,0.3485,0.3499,0.3511,0.3351,0.3351,0.335,0,0,0.326,0.3295,0.3359,0.3389,0.3444,0.3454,0.3469,0.3499,0.3502,0.3525,0.3496,0.3511,0.3508,0.3515,0.3514,0.359,0.356,0.3595,0.3646,0.3676,0.3688,0.3698,0.3735,0.3747,0.36,0.36,0.3601,0,0.3268,0.3354,0.3384,0.3444,0.347,0.3474,0.352,0.354,0.356,0.3558,0.3546,0.3557,0.3553,0.3587,0.3622,0.3617,0.3623,0.3593,0.3691,0.37,0.3708,0.3743,0.3756,0.3606,0.3605,0.3605,0.3604,0,0.337,0.343,0.3475,0.354,0.3568,0.3621,0.364,0.3658,0.3652,0.3653,0.3681,0.3682,0.3677,0.3702,0.3685,0.3749,0.3733,0.3703,0.3652,0.3729,0.3761,0.3772,0.3614,0.3612,0.361,0.3609,0,0,0.3382,0.3519,0.3524,0.3553,0.3617,0.364,0.369,0.3718,0.3719,0.3753,0.3758,0.3806,0.3787,0.3786,0.3779,0.3818,0.3909,0.3791,0.379,0.3823,0.3982,0.3805,0.38,0.3891,0.3893,0.3895,0.3991,0,0.3436,0.3559,0.3604,0.3673,0.3725,0.3731,0.3758,0.3776,0.3782,0.379,0.3811,0.382,0.3825,0.3823,0.3869,0.3884,0.3937,0.3885,0.3905,0.3906,0.3735,0.3806,0.3542,0.3589,0.4001,0.4003,0.4004,0,0.3496,0.3572,0.3666,0.3721,0.3735,0.3761,0.3766,0.3795,0.3815,0.3816,0.3839,0.3836,0.3901,0.3886,0.3979,0.3942,0.3976,0.3998,0.4001,0.3798,0.3747,0.3574,0.3593,0.3495,0.4021,0.4019,0.4018,0,0.347,0.3589,0.3658,0.3684,0.3759,0.3766,0.3781,0.3795,0.3798,0.3829,0.3824,0.3885,0.3903,0.3968,0.4,0.4003,0.408,0.4087,0.3971,0.3961,0.3716,0.3678,0.3627,0.4163,0.4163,0.4162,0.4162,0,0.3499,0.3541,0.3648,0.3682,0.3704,0.3751,0.3747,0.3767,0.3787,0.3771,0.3828,0.3824,0.3922,0.3957,0.4012,0.4,0.4093,0.3985,0.3968,0.3745,0.3711,0.3594,0.3582,0.4166,0.4165,0.4165,0.4164,0,0.3455,0.3546,0.3609,0.369,0.3702,0.3705,0.3718,0.3709,0.3744,0.3728,0.3739,0.3801,0.3828,0.3893,0.3985,0.3981,0.3869,0.3983,0.371,0.3656,0.343,0.3433,0.3252,0.318,0.3893,0.3889,0.3886,0,0.3444,0.3488,0.3581,0.3591,0.3624,0.3636,0.363,0.3676,0.3666,0.3688,0.3676,0.3708,0.369,0.3746,0.3728,0.3764,0.3702,0.3539,0.349,0.3372,0.3368,0.3287,0.3237,0.3245,0.3237,0.323,0.3225,0,0.3399,0.344,0.3497,0.3523,0.3531,0.3522,0.3527,0.3522,0.355,0.3544,0.3516,0.3513,0.3506,0.3386,0.3395,0.3389,0.3305,0.3398,0.3348,0.2902,0.2739,0.2673,0.3257,0.3164,0.317,0.3175,0.3178,0.318,0.334,0.3357,0.3428,0.3424,0.3434,0.3393,0.3309,0.3333,0.3303,0.3213,0.3325,0.3219,0.31,0.3058,0.303,0.277,0.2917,0.2668,0.2707,0.2657,0.2477,0.2916,0.2743,0.2747,0.275,0.2752,0.2755,0,0.326,0.3296,0.3302,0.3297,0.323,0.3265,0.3207,0.3089,0.2991,0.2989,0.2931,0.2732,0.2567,0.2462,0.2219,0.2108,0.2069,0.2037,0.1893,0.1908,0.2346,0.2203,0.1812,0.1812,0.1812,0.1812,0.1812,0.1813,0.3226,0.3223,0.3219,0.3088,0.3049,0.2875,0.2788,0.2669,0.2619,0.2406,0.2254,0.2226,0.2105,0.1854,0.1619,0.1589,0.1538,0.1376,0.1542,0.1866,0.1929,0.1989,0.1851,0.1393,0.1392,0.095,0.0947,0.0944]},{"header":{"parameterUnit":"m.s-1","parameterCategory":2,"la1":30.2991,"la2":30.254,"lo1":-89.0895,"lo2":-89.0444,"dy":0.0017,"dx":0.0017,"nx":28,"ny":28,"refTime":"2024-07-23T03:00:00:Z","depth":"0","parameterNumber":3,"parameterNumberName":"V-component_of_CURRENTS"},"data":[0,0,0,0,0,0,0,0,0,0,0,0,0,0,0,0,0,0,0,0,0,0,0,0,0,0,0,0,0,0,0,0,0,0,0,0,0,0,0,0,0,0,0,0,0,0,0,0,0,0,0,0,0,0,0,0,0,0,-0.0951,-0.0952,0,-0.1082,-0.1083,-0.1084,-0.1115,-0.1114,-0.1114,-0.1113,-0.1118,-0.1119,-0.1119,0,0,0,0,0,0,0,0,0,0,0,0,0,-0.0755,-0.0758,-0.095,-0.0953,-0.0955,-0.1082,-0.1083,-0.1085,-0.1115,-0.1114,-0.1114,-0.1113,-0.1118,-0.1118,-0.1119,0,0,0,0,0,0,0,0,0,0,0,0,0,-0.0854,-0.0759,-0.095,-0.0988,-0.0993,-0.1082,-0.1083,-0.1085,-0.1115,-0.1114,-0.1113,-0.1113,-0.1117,-0.1118,-0.1119,-0.114,0,0,-0.1122,-0.1122,0,0,0,0,0,0,0,0,-0.0848,-0.0861,-0.0981,-0.0986,-0.0992,-0.1085,-0.1016,-0.1099,-0.1115,-0.1064,-0.1113,-0.1112,-0.1098,-0.1101,-0.1123,-0.1141,-0.1141,-0.1122,-0.1123,-0.1123,-0.1123,0,0,0,0,0,0,0,-0.0841,-0.0856,-0.0998,-0.0983,-0.099,-0.1009,-0.1021,-0.1032,-0.1078,-0.1069,-0.1072,-0.1094,-0.11,-0.1122,-0.1123,-0.1141,-0.1122,-0.1123,-0.1123,-0.1124,-0.1197,-0.1198,0,0,0,0,0,0,-0.0834,-0.0849,-0.0994,-0.1003,-0.0921,-0.1013,-0.1027,-0.1052,-0.1081,-0.1087,-0.1094,-0.1095,-0.1121,-0.1122,-0.1123,-0.1132,-0.1123,-0.1124,-0.1124,-0.1195,-0.1197,-0.1198,0,0,0,0,0,0,-0.0829,-0.0846,-0.0989,-0.0932,-0.0952,-0.1018,-0.1046,-0.1055,-0.1082,-0.1103,-0.1105,-0.1112,-0.1121,-0.1122,-0.1148,-0.1132,-0.1124,-0.1125,-0.1194,-0.1196,-0.1198,-0.1159,0,0,0,0,0,0,-0.0823,-0.0843,-0.086,-0.0931,-0.0955,-0.1042,-0.1047,-0.1059,-0.1099,-0.11,-0.1119,-0.1119,-0.112,-0.1146,-0.1148,-0.1133,-0.1126,-0.1192,-0.1195,-0.1197,-0.1159,-0.116,-0.1161,0,0,0,0,0,-0.0815,-0.0844,-0.086,-0.0877,-0.0975,-0.1044,-0.1057,-0.1098,-0.11,-0.1117,-0.1135,-0.1118,-0.1164,-0.1149,-0.1151,-0.1135,-0.1191,-0.1194,-0.1197,-0.1158,-0.116,-0.1161,0,0,0,0,0,0,-0.0769,-0.0853,-0.087,-0.0923,-0.0978,-0.105,-0.1077,-0.1102,-0.1134,-0.113,-0.1139,-0.1141,-0.116,-0.1167,-0.1149,-0.117,-0.1173,-0.1177,-0.1143,-0.1145,-0.1146,-0.1086,-0.1127,0,0,0,0,0,-0.0767,-0.081,-0.0885,-0.0927,-0.0953,-0.1013,-0.1046,-0.1074,-0.1115,-0.1129,-0.1144,-0.116,-0.1177,-0.1175,-0.1198,-0.1205,-0.1155,-0.12,-0.1201,-0.1202,-0.1159,-0.1093,-0.1081,-0.1209,-0.1209,-0.1209,0,0,-0.0761,-0.0815,-0.0838,-0.092,-0.0964,-0.0995,-0.103,-0.1082,-0.1095,-0.1122,-0.114,-0.1169,-0.1187,-0.12,-0.1207,-0.1197,-0.1144,-0.1206,-0.1205,-0.1162,-0.1095,-0.1081,-0.1069,-0.1211,-0.121,-0.121,0,0,-0.0766,-0.0816,-0.0847,-0.0889,-0.096,-0.0994,-0.1007,-0.1076,-0.1092,-0.1127,-0.1146,-0.1158,-0.1197,-0.119,-0.1194,-0.1213,-0.1162,-0.124,-0.1174,-0.1112,-0.1099,-0.1086,-0.1008,-0.0989,-0.1226,-0.1226,-0.1226,0,-0.0749,-0.0803,-0.0865,-0.0899,-0.0926,-0.0986,-0.1005,-0.1036,-0.1101,-0.1095,-0.1125,-0.1153,-0.1177,-0.1153,-0.117,-0.1204,-0.1161,-0.1162,-0.1105,-0.1092,-0.108,-0.1003,-0.0982,-0.1224,-0.1224,-0.1225,-0.1225,0,-0.077,-0.0811,-0.0833,-0.0886,-0.0918,-0.0954,-0.0997,-0.1015,-0.104,-0.1058,-0.1059,-0.1098,-0.1092,-0.1124,-0.1152,-0.1091,-0.1085,-0.112,-0.1084,-0.1063,-0.0986,-0.0965,-0.1222,-0.1223,-0.1223,-0.1223,0,0,-0.0721,-0.0827,-0.0827,-0.0847,-0.0913,-0.0937,-0.0945,-0.096,-0.093,-0.0984,-0.0933,-0.0989,-0.0991,-0.0996,-0.103,-0.0986,-0.0886,-0.1013,-0.1011,-0.0901,-0.0725,-0.0681,-0.0653,-0.0909,-0.0906,-0.0903,-0.0703,0,-0.071,-0.0767,-0.0814,-0.0837,-0.0865,-0.09,-0.0891,-0.0902,-0.0906,-0.087,-0.0885,-0.0864,-0.0948,-0.093,-0.0904,-0.0884,-0.083,-0.0935,-0.0789,-0.0784,-0.0718,-0.0627,-0.0614,-0.0431,-0.0682,-0.0678,-0.0676,0,-0.0695,-0.0741,-0.0772,-0.0808,-0.0815,-0.0819,-0.0786,-0.0788,-0.075,-0.0743,-0.0714,-0.0722,-0.0662,-0.0746,-0.065,-0.0713,-0.0707,-0.07,-0.0693,-0.0637,-0.0699,-0.0497,-0.0383,-0.0452,-0.0643,-0.0646,-0.0648,0,-0.0626,-0.0694,-0.0715,-0.0735,-0.0784,-0.0769,-0.0768,-0.0739,-0.0692,-0.0635,-0.0564,-0.0539,-0.0471,-0.0466,-0.0465,-0.0541,-0.0344,-0.0447,-0.0396,-0.0393,-0.034,-0.0338,-0.0238,-0.0363,-0.0364,-0.0364,-0.0365,0,-0.0596,-0.0602,-0.0684,-0.0696,-0.0663,-0.0713,-0.0642,-0.0628,-0.0557,-0.0448,-0.0478,-0.0362,-0.0395,-0.0308,-0.0359,-0.0269,-0.0249,-0.0326,-0.0318,-0.0332,-0.0331,-0.0358,-0.0416,-0.0357,-0.0358,-0.036,-0.0361,0,-0.0514,-0.0581,-0.0592,-0.0639,-0.0638,-0.0603,-0.0555,-0.0479,-0.044,-0.0282,-0.0241,-0.0163,-0.0046,-0.007,-0.0015,-0.0083,-0.005,-0.0037,-0.004,-0.0036,-0.0086,-0.0143,0.004,0.0024,0.0072,0.0075,0.0077,0,-0.0478,-0.0492,-0.0525,-0.0491,-0.0506,-0.0473,-0.0415,-0.0404,-0.0311,-0.0144,-0.0031,0.0109,0.0238,0.0341,0.0258,0.025,0.0114,0.0216,0.0059,-0.002,-0.0079,-0.0125,-0.0159,0.0142,0.0144,0.0146,0.0148,0,-0.0389,-0.0405,-0.0409,-0.035,-0.03,-0.0243,-0.0171,-0.0093,-0.0029,0.0104,0.0317,0.0432,0.0525,0.0553,0.0507,0.0441,0.0189,0.0259,0.0184,0.0025,-0.0021,-0.0057,-0.0061,0.0167,0.0165,0.0163,0.0162,0.0162,-0.0287,-0.0255,-0.0245,-0.0173,-0.0107,0.0005,0.007,0.0167,0.0319,0.051,0.058,0.0769,0.0731,0.0686,0.0598,0.0402,0.0369,0.029,0.0246,0.022,0.0161,0.0216,0.043,0.043,0.043,0.043,0.0429,0,-0.0149,-0.0123,-0.0052,0.0034,0.0149,0.0134,0.0261,0.0334,0.0516,0.0691,0.0854,0.0969,0.0921,0.0768,0.0539,0.04,0.0287,0.0303,0.0207,0.0181,0.0253,0.0204,0.037,0.037,0.037,0.037,0.0371,0.0371,-0.0067,0.0025,0.0051,0.0256,0.0319,0.0439,0.0501,0.0609,0.0725,0.0924,0.1043,0.1126,0.1036,0.0666,0.0399,0.0317,0.0179,0.0195,0.0133,0.0111,0.0103,0.0095,0.0036,0.0164,0.0164,0.0056,0.0055,0.0054]}],[{"header":{"parameterUnit":"m.s-1","parameterCategory":2,"la1":30.2991,"la2":30.254,"lo1":-89.0895,"lo2":-89.0444,"dy":0.0017,"dx":0.0017,"nx":28,"ny":28,"refTime":"2024-07-23T03:00:00:Z","depth":"2","parameterNumber":2,"parameterNumberName":"U-component_of_CURRENTS"},"data":[0,0,0,0,0,0,0,0,0,0,0,0,0,0,0,0,0,0,0,0,0,0,0,0,0,0,0,0,0,0,0,0,0,0,0,0,0,0,0,0,0,0,0,0,0,0,0,0,0,0,0,0,0,0,0,0,0,0,0.1895,0.1896,0,0.1863,0.1862,0.1861,0.1943,0.1947,0.195,0.1954,0.2048,0.2047,0.2047,0,0,0,0,0,0,0,0,0,0,0,0,0,0.1819,0.1821,0.1895,0.1896,0.1896,0.1863,0.1862,0.186,0.1943,0.1947,0.1951,0.1955,0.2048,0.2047,0.2047,0,0,0,0,0,0,0,0,0,0,0,0,0,0.1817,0.1821,0.1895,0.1941,0.1945,0.1864,0.1862,0.186,0.1942,0.1947,0.1952,0.1957,0.2049,0.2048,0.2046,0.1935,0,0,0.2043,0.2043,0,0,0,0,0,0,0,0,0.1818,0.1819,0.1933,0.1937,0.1942,0.1921,0.187,0.1895,0.1941,0.1933,0.1954,0.196,0.202,0.2021,0.1988,0.1939,0.1943,0.2043,0.2042,0.2042,0.2041,0,0,0,0,0,0,0,0.1818,0.182,0.1873,0.1934,0.1939,0.1892,0.1898,0.1873,0.1942,0.1934,0.1942,0.1952,0.2023,0.1988,0.1991,0.1945,0.2043,0.2042,0.2041,0.2041,0.2164,0.2167,0,0,0,0,0,0,0.1847,0.1821,0.1874,0.1873,0.1903,0.189,0.1897,0.1915,0.194,0.1951,0.1948,0.1957,0.1988,0.1993,0.1995,0.2153,0.2042,0.2041,0.204,0.216,0.2164,0.2169,0,0,0,0,0,0,0.1845,0.1852,0.1875,0.1853,0.1855,0.1889,0.1906,0.1912,0.1968,0.1951,0.1964,0.2013,0.1992,0.1997,0.205,0.2147,0.204,0.2039,0.2155,0.2161,0.2167,0.2284,0,0,0,0,0,0,0.1843,0.1851,0.189,0.1855,0.1857,0.1919,0.1902,0.1907,0.1966,0.1979,0.2008,0.2017,0.1997,0.2052,0.2049,0.2144,0.2038,0.215,0.2158,0.2165,0.2275,0.2293,0.2308,0,0,0,0,0,0.184,0.1863,0.1892,0.19,0.1905,0.1923,0.1921,0.1952,0.1965,0.2015,0.2021,0.2021,0.21,0.2052,0.2048,0.2145,0.2147,0.2156,0.2164,0.2267,0.2289,0.2308,0,0,0,0,0,0,0.1881,0.1873,0.1905,0.1938,0.1979,0.1944,0.1963,0.1989,0.2019,0.2024,0.2025,0.2034,0.2136,0.2112,0.206,0.221,0.2141,0.2149,0.2221,0.2241,0.2258,0.2331,0.2037,0,0,0,0,0,0.1899,0.1893,0.1928,0.1958,0.1977,0.1982,0.1997,0.2018,0.2028,0.2048,0.2076,0.2102,0.2146,0.2175,0.2197,0.2234,0.2221,0.2312,0.2329,0.2343,0.2405,0.2456,0.2483,0.2198,0.2198,0.2197,0,0,0.1921,0.1915,0.192,0.1963,0.1968,0.2029,0.2004,0.2032,0.2107,0.2046,0.2148,0.2158,0.2173,0.2245,0.2291,0.2248,0.2404,0.2354,0.2365,0.2421,0.2468,0.2496,0.252,0.2204,0.2203,0.2202,0,0,0.1952,0.1962,0.1987,0.2026,0.2064,0.2065,0.2107,0.2127,0.2172,0.2238,0.2242,0.2321,0.2352,0.2403,0.2425,0.2546,0.2497,0.256,0.2691,0.2738,0.2762,0.2783,0.2734,0.275,0.2559,0.2559,0.2559,0,0.1998,0.2038,0.2009,0.2068,0.2103,0.2111,0.2186,0.2221,0.2271,0.2299,0.2312,0.2414,0.2447,0.2551,0.2629,0.2593,0.2566,0.2601,0.2759,0.278,0.28,0.2745,0.2761,0.2566,0.2565,0.2565,0.2564,0,0.2063,0.2125,0.2136,0.221,0.2248,0.2293,0.2347,0.2401,0.2438,0.2474,0.2594,0.2623,0.2688,0.2733,0.273,0.2893,0.2806,0.2773,0.2701,0.2835,0.2768,0.2782,0.2576,0.2573,0.2571,0.257,0,0,0.2086,0.2171,0.2182,0.2235,0.2319,0.2335,0.2448,0.2533,0.2588,0.2682,0.2784,0.2915,0.2917,0.2951,0.2955,0.3045,0.3158,0.2994,0.2993,0.2932,0.3193,0.2987,0.298,0.3138,0.3143,0.3147,0.3062,0,0.2166,0.227,0.2298,0.2415,0.2474,0.2505,0.2604,0.267,0.2718,0.2816,0.2895,0.2988,0.2998,0.303,0.3131,0.3147,0.3215,0.3181,0.3086,0.3083,0.2876,0.3,0.2769,0.2665,0.3076,0.3078,0.308,0,0.2239,0.2283,0.2403,0.2488,0.2516,0.2597,0.2669,0.2753,0.2875,0.2917,0.3015,0.3058,0.321,0.321,0.3311,0.3274,0.3286,0.3301,0.3295,0.3093,0.2909,0.2615,0.2675,0.3103,0.3101,0.3099,0.3098,0,0.2216,0.2351,0.2424,0.2465,0.2579,0.2631,0.269,0.2786,0.284,0.2978,0.3027,0.3159,0.3218,0.3299,0.3343,0.3325,0.3439,0.3371,0.3188,0.3166,0.2956,0.2908,0.3501,0.3501,0.3501,0.3501,0.3502,0,0.2265,0.2323,0.2422,0.2458,0.2531,0.2617,0.2692,0.2762,0.2891,0.2939,0.307,0.3118,0.3263,0.3324,0.3366,0.33,0.3422,0.3256,0.3171,0.2978,0.2936,0.3321,0.3302,0.3498,0.3499,0.3499,0.35,0,0.2234,0.2314,0.2385,0.2493,0.2525,0.2566,0.2679,0.2751,0.2847,0.292,0.2976,0.3106,0.311,0.3209,0.33,0.326,0.3267,0.3229,0.2949,0.2835,0.2938,0.2927,0.2963,0.2956,0.295,0.2945,0.2941,0,0.2238,0.2275,0.2357,0.2403,0.2461,0.2532,0.261,0.2723,0.2782,0.2863,0.2912,0.2963,0.2929,0.295,0.2933,0.2898,0.3082,0.2678,0.2638,0.299,0.2904,0.2901,0.2897,0.2367,0.2358,0.2351,0.2346,0,0.2229,0.2251,0.2294,0.2363,0.2447,0.249,0.259,0.2611,0.271,0.2734,0.2724,0.2698,0.2662,0.2494,0.2473,0.2448,0.2655,0.2522,0.3017,0.2531,0.2419,0.2336,0.2354,0.2283,0.2289,0.2294,0.2297,0.23,0.2206,0.2231,0.2287,0.2329,0.24,0.2417,0.2381,0.2447,0.2433,0.236,0.2453,0.2296,0.2294,0.2055,0.2005,0.199,0.216,0.2109,0.2135,0.2168,0.2107,0.1991,0.1757,0.176,0.1763,0.1765,0.1768,0,0.2164,0.2215,0.2268,0.2282,0.2257,0.233,0.2346,0.2244,0.2103,0.2079,0.198,0.1739,0.1585,0.1613,0.146,0.1446,0.1502,0.1409,0.1486,0.1546,0.1601,0.1518,0.1008,0.1006,0.1004,0.1002,0,0,0.216,0.2173,0.2183,0.2106,0.2108,0.2021,0.1965,0.1815,0.1737,0.1512,0.1396,0.1441,0.1506,0.1222,0.1192,0.107,0.1308,0.1024,0.1629,0.1776,0.1828,0.1989,0.1925,0,0,0,0,0]},{"header":{"parameterUnit":"m.s-1","parameterCategory":2,"la1":30.2991,"la2":30.254,"lo1":-89.0895,"lo2":-89.0444,"dy":0.0017,"dx":0.0017,"nx":28,"ny":28,"refTime":"2024-07-23T03:00:00:Z","depth":"2","parameterNumber":3,"parameterNumberName":"V-component_of_CURRENTS"},"data":[0,0,0,0,0,0,0,0,0,0,0,0,0,0,0,0,0,0,0,0,0,0,0,0,0,0,0,0,0,0,0,0,0,0,0,0,0,0,0,0,0,0,0,0,0,0,0,0,0,0,0,0,0,0,0,0,0,0,0.0172,0.0172,0,0.017,0.017,0.017,0.0139,0.0138,0.0137,0.0136,0.007,0.0069,0.0068,0,0,0,0,0,0,0,0,0,0,0,0,0,0.0124,0.0125,0.0172,0.0172,0.0172,0.017,0.017,0.017,0.0139,0.0138,0.0137,0.0136,0.007,0.0069,0.0068,0,0,0,0,0,0,0,0,0,0,0,0,0,0.0137,0.0125,0.0172,0.0155,0.0153,0.017,0.017,0.017,0.0139,0.0138,0.0136,0.0135,0.007,0.0069,0.0068,0.0087,0,0,0.0064,0.0063,0,0,0,0,0,0,0,0,0.0136,0.0139,0.0158,0.0156,0.0154,0.0152,0.0128,0.0139,0.0139,0.0146,0.0136,0.0134,0.0091,0.0088,0.0094,0.0084,0.0081,0.0064,0.0063,0.0062,0.0062,0,0,0,0,0,0,0,0.0135,0.0139,0.0173,0.0158,0.0156,0.0138,0.0139,0.013,0.0127,0.0145,0.0143,0.0141,0.009,0.0095,0.0092,0.008,0.0064,0.0062,0.0062,0.0061,0.0074,0.0075,0,0,0,0,0,0,0.0136,0.0138,0.0173,0.0172,0.014,0.014,0.0141,0.0155,0.0128,0.0123,0.0142,0.0139,0.0098,0.0093,0.0089,0.01,0.0062,0.0061,0.006,0.0073,0.0074,0.0075,0,0,0,0,0,0,0.0135,0.014,0.0173,0.0153,0.0155,0.0142,0.0159,0.0156,0.0134,0.0126,0.0119,0.0119,0.0097,0.0091,0.0063,0.0097,0.006,0.0059,0.0071,0.0073,0.0075,0.0127,0,0,0,0,0,0,0.0134,0.014,0.014,0.0154,0.0157,0.0191,0.016,0.0157,0.0136,0.0131,0.0104,0.0099,0.0096,0.0065,0.0061,0.0094,0.0058,0.007,0.0072,0.0074,0.0123,0.013,0.0135,0,0,0,0,0,0.0133,0.0154,0.0141,0.0144,0.0162,0.0192,0.0193,0.0179,0.0136,0.0148,0.0108,0.0098,0.0077,0.0064,0.006,0.0093,0.0069,0.0072,0.0074,0.0121,0.0129,0.0135,0,0,0,0,0,0,0.013,0.0153,0.0139,0.0163,0.0175,0.0186,0.0192,0.0165,0.0144,0.0129,0.0095,0.0089,0.009,0.0075,0.0061,0.0105,0.0079,0.0081,0.0116,0.0123,0.0129,0.0159,0.0057,0,0,0,0,0,0.013,0.0155,0.0166,0.0185,0.0191,0.0179,0.0179,0.0175,0.0161,0.0149,0.0127,0.0107,0.0106,0.0094,0.0101,0.0103,0.0091,0.0128,0.0134,0.0139,0.0162,0.0148,0.0155,0.0084,0.0084,0.0084,0,0,0.0132,0.0148,0.0158,0.0185,0.019,0.0218,0.0177,0.0192,0.0207,0.0146,0.0148,0.0127,0.0111,0.0132,0.0132,0.0115,0.0154,0.0142,0.0147,0.0168,0.0152,0.0158,0.0164,0.0086,0.0085,0.0085,0,0,0.0162,0.0165,0.0194,0.0212,0.0226,0.0236,0.0232,0.0238,0.0232,0.0226,0.0197,0.0191,0.0169,0.0188,0.0184,0.0223,0.019,0.0217,0.0265,0.025,0.0256,0.0261,0.0256,0.026,0.0214,0.0214,0.0214,0,0.0152,0.0204,0.0206,0.0239,0.026,0.0241,0.0279,0.028,0.0272,0.028,0.0235,0.0237,0.0211,0.0252,0.0259,0.0242,0.0215,0.0235,0.0258,0.0262,0.0266,0.026,0.0263,0.0217,0.0217,0.0216,0.0216,0,0.0212,0.0244,0.0267,0.0309,0.0329,0.0369,0.0376,0.0389,0.0362,0.036,0.038,0.035,0.0348,0.0346,0.0301,0.0335,0.0302,0.0269,0.0238,0.0276,0.0267,0.027,0.0221,0.022,0.0219,0.0218,0,0,0.0221,0.0294,0.0302,0.0342,0.0376,0.0412,0.0443,0.0486,0.0508,0.0493,0.0511,0.0512,0.0478,0.0473,0.0436,0.0421,0.0411,0.0344,0.0341,0.0338,0.037,0.0341,0.0341,0.0357,0.0358,0.0358,0.0352,0,0.0267,0.0365,0.0377,0.0462,0.0519,0.0521,0.0562,0.0589,0.0584,0.0594,0.0576,0.0559,0.053,0.0493,0.0493,0.044,0.042,0.0416,0.0336,0.0335,0.0303,0.0345,0.0342,0.0335,0.0355,0.0355,0.0355,0,0.0318,0.0392,0.0487,0.0575,0.0596,0.0623,0.0697,0.0722,0.0732,0.0711,0.0707,0.0653,0.0655,0.0573,0.0565,0.0551,0.0462,0.0416,0.0414,0.0376,0.0312,0.03,0.0339,0.036,0.036,0.0359,0.0359,0,0.0365,0.0462,0.0553,0.0582,0.0671,0.0696,0.0722,0.0756,0.0766,0.0744,0.0737,0.0739,0.0722,0.0648,0.0561,0.0532,0.0524,0.0472,0.0379,0.0376,0.0359,0.0354,0.0426,0.0426,0.0426,0.0426,0.0426,0,0.0427,0.0495,0.0576,0.0631,0.0736,0.0743,0.081,0.0831,0.0808,0.0849,0.078,0.0808,0.0726,0.0703,0.0594,0.0532,0.0556,0.0411,0.0379,0.0377,0.0373,0.038,0.0375,0.0425,0.0425,0.0426,0.0426,0,0.0456,0.0516,0.0626,0.0727,0.0761,0.0817,0.084,0.0857,0.0851,0.0888,0.0854,0.0851,0.0842,0.0765,0.0667,0.0597,0.0499,0.044,0.0452,0.0421,0.035,0.0347,0.036,0.0359,0.0358,0.0358,0.0357,0,0.0485,0.0549,0.0691,0.0756,0.0791,0.086,0.0888,0.0872,0.0882,0.0944,0.096,0.0938,0.0955,0.0844,0.0688,0.0525,0.049,0.0401,0.0348,0.0379,0.0346,0.0345,0.0344,0.0347,0.0347,0.0346,0.0346,0,0.0548,0.0585,0.0684,0.0811,0.086,0.0929,0.0964,0.0978,0.0988,0.102,0.1084,0.1075,0.0998,0.0862,0.0644,0.0524,0.0434,0.0384,0.0426,0.0359,0.0365,0.0333,0.0333,0.0342,0.0342,0.0342,0.0343,0.0343,0.0586,0.0658,0.0768,0.0874,0.0932,0.0982,0.1015,0.1046,0.1081,0.1117,0.1159,0.1142,0.1032,0.0729,0.0567,0.0382,0.0391,0.0306,0.0309,0.0312,0.0306,0.031,0.0276,0.0276,0.0276,0.0276,0.0276,0,0.0661,0.0722,0.0818,0.0937,0.0958,0.0987,0.1052,0.1055,0.1107,0.1143,0.116,0.1008,0.0869,0.071,0.0437,0.0287,0.0272,0.023,0.0251,0.0257,0.0261,0.0253,0.0209,0.0208,0.0208,0.0207,0,0,0.0709,0.0812,0.0846,0.0923,0.0966,0.0981,0.1006,0.1037,0.1067,0.1065,0.1031,0.1025,0.0884,0.0672,0.0497,0.0346,0.0321,0.0304,0.0373,0.0423,0.0429,0.0322,0.0318,0,0,0,0,0]}],[{"header":{"parameterUnit":"m.s-1","parameterCategory":2,"la1":30.2991,"la2":30.254,"lo1":-89.0895,"lo2":-89.0444,"dy":0.0017,"dx":0.0017,"nx":28,"ny":28,"refTime":"2024-07-23T03:00:00:Z","depth":"4","parameterNumber":2,"parameterNumberName":"U-component_of_CURRENTS"},"data":[0,0,0,0,0,0,0,0,0,0,0,0,0,0,0,0,0,0,0,0,0,0,0,0,0,0,0,0,0,0,0,0,0,0,0,0,0,0,0,0,0,0,0,0,0,0,0,0,0,0,0,0,0,0,0,0,0,0,0.0373,0.0373,0,0.0369,0.0369,0.0369,0.0409,0.041,0.0411,0.0412,0.047,0.047,0.0471,0,0,0,0,0,0,0,0,0,0,0,0,0,0.0488,0.0485,0.0373,0.0373,0.0372,0.0369,0.0369,0.0369,0.0409,0.041,0.0412,0.0413,0.0469,0.047,0.0471,0,0,0,0,0,0,0,0,0,0,0,0,0,0.0456,0.0484,0.0373,0.0392,0.0394,0.0369,0.0369,0.0369,0.0409,0.041,0.0412,0.0414,0.0469,0.047,0.0471,0.0443,0,0,0.0473,0.0473,0,0,0,0,0,0,0,0,0.0458,0.0452,0.0389,0.0391,0.0392,0.0391,0.043,0.0396,0.0408,0.0403,0.0413,0.0414,0.0447,0.045,0.0445,0.0446,0.0448,0.0473,0.0474,0.0474,0.0474,0,0,0,0,0,0,0,0.046,0.0453,0.0372,0.0389,0.0391,0.0426,0.0422,0.0424,0.0418,0.0404,0.0407,0.0405,0.0449,0.0445,0.0447,0.0449,0.0473,0.0474,0.0474,0.0475,0.055,0.0551,0,0,0,0,0,0,0.0453,0.0454,0.0372,0.0371,0.0429,0.0422,0.0418,0.039,0.0417,0.0422,0.0404,0.0407,0.0442,0.0446,0.045,0.0528,0.0474,0.0475,0.0475,0.0548,0.055,0.0552,0,0,0,0,0,0,0.0455,0.0445,0.0372,0.0415,0.0408,0.0417,0.0386,0.0389,0.0386,0.0416,0.0422,0.0399,0.0444,0.0448,0.0493,0.0526,0.0475,0.0476,0.0547,0.0549,0.0551,0.0614,0,0,0,0,0,0,0.0458,0.0445,0.0433,0.0413,0.0405,0.0354,0.0384,0.0388,0.0383,0.0387,0.0413,0.042,0.0445,0.0492,0.0494,0.0526,0.0476,0.0545,0.0548,0.055,0.061,0.0618,0.0625,0,0,0,0,0,0.0462,0.0427,0.0432,0.0423,0.0383,0.0353,0.0352,0.0367,0.0381,0.0372,0.0425,0.0419,0.0512,0.0494,0.0496,0.0529,0.0543,0.0547,0.055,0.0607,0.0617,0.0625,0,0,0,0,0,0,0.0467,0.0427,0.0432,0.0387,0.0374,0.036,0.0354,0.0357,0.0385,0.0406,0.0434,0.0445,0.0478,0.0498,0.0477,0.056,0.0527,0.0531,0.0569,0.0579,0.0586,0.06,0.0477,0,0,0,0,0,0.0462,0.0429,0.0403,0.037,0.036,0.0356,0.0349,0.0359,0.0375,0.0387,0.0412,0.0456,0.0489,0.0532,0.0537,0.0595,0.0615,0.0619,0.0626,0.0633,0.0646,0.0738,0.0756,0.0563,0.0563,0.0563,0,0,0.0454,0.0431,0.0412,0.0372,0.0363,0.0355,0.0355,0.0342,0.0373,0.0389,0.0441,0.0451,0.0496,0.0557,0.0578,0.0592,0.069,0.0637,0.0643,0.0653,0.0744,0.0763,0.078,0.0566,0.0565,0.0565,0,0,0.0425,0.04,0.0369,0.0355,0.0343,0.0351,0.0344,0.0336,0.0373,0.042,0.0441,0.0489,0.0538,0.0595,0.063,0.0682,0.0692,0.0679,0.0776,0.0866,0.0883,0.0898,0.0916,0.0932,0.0729,0.0729,0.0729,0,0.0439,0.0383,0.0359,0.0335,0.034,0.0347,0.0342,0.0372,0.0395,0.0445,0.045,0.0557,0.0566,0.0684,0.0709,0.07,0.0735,0.0739,0.0878,0.0893,0.0908,0.0923,0.0941,0.0732,0.0732,0.0732,0.0731,0,0.0381,0.0358,0.0337,0.0323,0.0324,0.0316,0.0354,0.0399,0.0451,0.0486,0.0588,0.0639,0.0728,0.0728,0.0741,0.0857,0.0837,0.084,0.0856,0.0932,0.0941,0.0958,0.0737,0.0736,0.0735,0.0734,0,0,0.0398,0.0317,0.0325,0.0322,0.0326,0.0326,0.0403,0.0472,0.0548,0.0613,0.0722,0.0794,0.0834,0.0876,0.0907,0.0991,0.1091,0.0979,0.0982,0.0998,0.1258,0.1122,0.1127,0.114,0.1144,0.1147,0.1211,0,0.0389,0.0333,0.0316,0.0323,0.0303,0.0363,0.0442,0.0518,0.0597,0.0699,0.0808,0.0877,0.0896,0.0946,0.1051,0.1056,0.1146,0.107,0.1181,0.1182,0.1057,0.1146,0.1161,0.1224,0.1228,0.123,0.1232,0,0.036,0.0334,0.0311,0.034,0.0348,0.0384,0.0529,0.0597,0.0745,0.0816,0.0951,0.0983,0.112,0.111,0.1272,0.1234,0.1264,0.1273,0.1277,0.1145,0.1081,0.1141,0.1263,0.1261,0.1259,0.1257,0.1255,0,0.0374,0.035,0.0342,0.0339,0.0371,0.0444,0.0511,0.0643,0.0735,0.0881,0.0949,0.1109,0.1206,0.1297,0.1334,0.1319,0.1473,0.1452,0.1365,0.1353,0.1426,0.1409,0.158,0.158,0.158,0.1579,0.1579,0,0.0363,0.0367,0.0356,0.0349,0.0423,0.046,0.0587,0.0679,0.0831,0.0935,0.1021,0.1128,0.1265,0.1356,0.138,0.1428,0.1537,0.1391,0.1383,0.1442,0.1427,0.1435,0.1418,0.1582,0.1581,0.1581,0.158,0,0.0365,0.0339,0.0339,0.0383,0.0411,0.0478,0.0614,0.0709,0.0843,0.099,0.1032,0.1181,0.1284,0.1371,0.1485,0.1475,0.1504,0.1493,0.1519,0.1507,0.1304,0.1289,0.14,0.1396,0.1393,0.139,0.1388,0,0.0332,0.0327,0.036,0.0391,0.0418,0.0516,0.0597,0.0721,0.081,0.1011,0.1075,0.1201,0.1289,0.136,0.1434,0.1473,0.1464,0.1456,0.141,0.1316,0.1298,0.1287,0.1277,0.1383,0.1382,0.1381,0.1381,0,0.0302,0.0334,0.0351,0.0415,0.0478,0.0528,0.0641,0.0697,0.0861,0.0976,0.1098,0.1142,0.1257,0.1313,0.1354,0.1379,0.1441,0.1422,0.1429,0.1385,0.1297,0.1279,0.1273,0.1369,0.1371,0.1372,0.1373,0,0.0304,0.0326,0.0371,0.0453,0.0516,0.0546,0.0582,0.0689,0.0779,0.0989,0.1023,0.1151,0.1269,0.1265,0.1299,0.1308,0.1287,0.1239,0.1254,0.1267,0.1189,0.1055,0.1069,0,0,0,0,0,0.0298,0.0343,0.0408,0.0466,0.0537,0.0562,0.0633,0.0672,0.0806,0.0876,0.0957,0.1044,0.1106,0.1148,0.1133,0.1205,0.1269,0.1175,0.1215,0.1308,0.1321,0.1238,0,0,0,0,0,0,0.0293,0.0339,0.0403,0.0488,0.0538,0.0574,0.06,0.0657,0.0696,0.0842,0.0879,0.0985,0.1049,0.1138,0.1128,0.1138,0.1135,0.1249,0.1245,0.1301,0.1313,0.1323,0.1242,0,0,0,0,0]},{"header":{"parameterUnit":"m.s-1","parameterCategory":2,"la1":30.2991,"la2":30.254,"lo1":-89.0895,"lo2":-89.0444,"dy":0.0017,"dx":0.0017,"nx":28,"ny":28,"refTime":"2024-07-23T03:00:00:Z","depth":"4","parameterNumber":3,"parameterNumberName":"V-component_of_CURRENTS"},"data":[0,0,0,0,0,0,0,0,0,0,0,0,0,0,0,0,0,0,0,0,0,0,0,0,0,0,0,0,0,0,0,0,0,0,0,0,0,0,0,0,0,0,0,0,0,0,0,0,0,0,0,0,0,0,0,0,0,0,0.0451,0.0452,0,0.0498,0.0498,0.0499,0.0497,0.0497,0.0496,0.0496,0.0477,0.0477,0.0477,0,0,0,0,0,0,0,0,0,0,0,0,0,0.0326,0.0328,0.0451,0.0452,0.0453,0.0498,0.0498,0.0499,0.0497,0.0497,0.0496,0.0496,0.0477,0.0477,0.0477,0,0,0,0,0,0,0,0,0,0,0,0,0,0.0375,0.0329,0.0451,0.0459,0.0461,0.0498,0.0498,0.0499,0.0497,0.0497,0.0496,0.0495,0.0477,0.0477,0.0477,0.0488,0,0,0.0476,0.0476,0,0,0,0,0,0,0,0,0.0372,0.0379,0.0457,0.0459,0.0461,0.0494,0.0448,0.0493,0.0497,0.048,0.0496,0.0495,0.0479,0.0479,0.0486,0.0487,0.0486,0.0476,0.0476,0.0476,0.0476,0,0,0,0,0,0,0,0.0368,0.0377,0.0467,0.0458,0.046,0.045,0.0456,0.0456,0.0479,0.0482,0.0483,0.0493,0.0479,0.0486,0.0485,0.0486,0.0476,0.0476,0.0476,0.0476,0.0487,0.0488,0,0,0,0,0,0,0.0372,0.0374,0.0465,0.0468,0.0417,0.0453,0.0459,0.0481,0.048,0.0481,0.0493,0.0492,0.0486,0.0485,0.0484,0.0505,0.0476,0.0476,0.0476,0.0487,0.0487,0.0488,0,0,0,0,0,0,0.0369,0.038,0.0463,0.0423,0.0434,0.0456,0.048,0.0483,0.0503,0.049,0.0489,0.0512,0.0486,0.0485,0.0495,0.0504,0.0476,0.0476,0.0486,0.0487,0.0488,0.0541,0,0,0,0,0,0,0.0365,0.0379,0.0399,0.0424,0.0436,0.0485,0.0481,0.0484,0.0511,0.051,0.0506,0.0503,0.0485,0.0495,0.0495,0.0503,0.0476,0.0486,0.0487,0.0487,0.0539,0.0543,0.0547,0,0,0,0,0,0.0361,0.0389,0.04,0.0411,0.0462,0.0486,0.0491,0.0502,0.0512,0.0519,0.0522,0.0504,0.0499,0.0496,0.0495,0.0504,0.0486,0.0487,0.0487,0.0537,0.0543,0.0547,0,0,0,0,0,0,0.0349,0.0393,0.0404,0.0447,0.0465,0.0487,0.0503,0.0515,0.0527,0.0532,0.0518,0.0516,0.0521,0.051,0.0507,0.0507,0.0486,0.0487,0.0524,0.0529,0.0533,0.0514,0.0475,0,0,0,0,0,0.0357,0.0387,0.042,0.0452,0.0466,0.049,0.0505,0.0516,0.0529,0.0535,0.0536,0.0532,0.0523,0.0526,0.0513,0.0527,0.0488,0.0528,0.0532,0.0536,0.0519,0.048,0.0479,0.0491,0.0491,0.0491,0,0,0.0362,0.039,0.0408,0.0451,0.047,0.0497,0.0497,0.0527,0.0547,0.0531,0.056,0.0548,0.0529,0.0534,0.0535,0.0529,0.0514,0.0538,0.0541,0.0521,0.0481,0.0479,0.0478,0.0492,0.0492,0.0491,0,0,0.0382,0.0412,0.0443,0.0463,0.0499,0.0511,0.0525,0.0557,0.0567,0.0598,0.058,0.0572,0.0586,0.0558,0.0549,0.0571,0.0534,0.0578,0.0592,0.0555,0.0553,0.0551,0.0507,0.05,0.0586,0.0586,0.0586,0,0.0381,0.0438,0.0452,0.0485,0.0507,0.0522,0.0556,0.0569,0.0599,0.0596,0.0612,0.0608,0.0589,0.0577,0.0577,0.0579,0.0553,0.0578,0.056,0.0557,0.0554,0.0509,0.0501,0.0589,0.0589,0.0588,0.0588,0,0.0425,0.0472,0.0491,0.0538,0.0553,0.0588,0.0605,0.063,0.0652,0.0643,0.0647,0.0639,0.0632,0.0626,0.0609,0.0582,0.0569,0.0567,0.0547,0.0556,0.0508,0.0498,0.0593,0.0592,0.0591,0.059,0,0,0.0418,0.0507,0.0514,0.0544,0.059,0.0602,0.0641,0.0655,0.0665,0.0684,0.0691,0.0671,0.0659,0.0646,0.0634,0.0596,0.055,0.0577,0.0574,0.0532,0.0466,0.0454,0.0442,0.0555,0.0554,0.0553,0.0443,0,0.045,0.0529,0.0558,0.0613,0.0654,0.0674,0.0702,0.0704,0.0707,0.071,0.0687,0.0674,0.0672,0.0675,0.0645,0.0567,0.0528,0.0579,0.0463,0.0458,0.0446,0.0431,0.0548,0.0436,0.0434,0.0432,0.0431,0,0.0485,0.0534,0.0614,0.0665,0.068,0.0711,0.0741,0.0767,0.0753,0.0755,0.0747,0.0709,0.0665,0.0667,0.0564,0.0605,0.0536,0.0475,0.047,0.0427,0.0428,0.0422,0.0414,0.0415,0.0416,0.0417,0.0419,0,0.0483,0.0562,0.0631,0.0654,0.0718,0.075,0.0777,0.0778,0.0796,0.0774,0.077,0.072,0.0713,0.0626,0.0521,0.0537,0.0392,0.0402,0.0323,0.0321,0.0342,0.0345,0.0309,0.0309,0.031,0.031,0.031,0,0.0516,0.0557,0.0643,0.0682,0.0727,0.0766,0.081,0.082,0.085,0.0841,0.08,0.0784,0.0701,0.0613,0.0515,0.0395,0.0396,0.0305,0.0288,0.0369,0.0376,0.0335,0.034,0.0306,0.0307,0.0307,0.0308,0,0.0513,0.0582,0.0642,0.072,0.0742,0.0772,0.0847,0.0883,0.0898,0.0902,0.0892,0.0829,0.0713,0.0609,0.0449,0.0394,0.026,0.0213,0.0295,0.0287,0.0212,0.0221,0.011,0.0109,0.0107,0.0106,0.0105,0,0.0525,0.0576,0.0658,0.0698,0.0743,0.0808,0.0869,0.0911,0.0937,0.0911,0.0902,0.0802,0.0739,0.0518,0.0411,0.0228,0.0209,0.0142,0.018,0.0195,0.0189,0.02,0.021,0.0104,0.0103,0.0103,0.0103,0,0.0526,0.0567,0.0617,0.0712,0.0779,0.0832,0.0902,0.0918,0.0954,0.0969,0.0882,0.0764,0.0644,0.0496,0.0366,0.0232,0.0185,0.0129,0.0131,0.0166,0.0186,0.0184,0.0195,0.0098,0.0099,0.0099,0.01,0,0.0513,0.054,0.063,0.0703,0.078,0.0824,0.0862,0.0894,0.0914,0.0892,0.0856,0.0729,0.0677,0.0495,0.036,0.0246,0.022,0.0182,0.0181,0.0184,0.0249,0.0287,0.0199,0,0,0,0,0,0.05,0.0546,0.0621,0.0683,0.0764,0.0799,0.0873,0.0914,0.0935,0.0877,0.087,0.0744,0.0557,0.0476,0.0357,0.0335,0.0199,0.019,0.0154,0.0075,0.0079,0.0142,0,0,0,0,0,0,0.049,0.0555,0.0606,0.066,0.0704,0.0769,0.0811,0.0831,0.0796,0.0808,0.0712,0.0696,0.052,0.0615,0.0343,0.0311,0.0268,0.0119,0.0116,0.0072,0.0076,0.008,0.0146,0,0,0,0,0]}]]